Probability
4 4 2 1 0 2 6 8 8 7 5 4 4 4 1 0 0 0 0 0 0 0 0 0 0 0 0 0 0 0 0 0 0 0 0 0 0 0 0 0 0 0 0
5 4 3 2 1 2 7 12 15 17 14 10 8 5 2 0 0 0 0 0 0 0 0 0 0 0 0 0 0 0 0 0 0 0 0 0 0 0 0 0 0 0 0
5 4 3 2 1 3 9 17 23 25 21 14 11 7 2 0 0 0 0 0 0 0 0 0 0 0 0 0 0 0 0 0 0 0 0 0 0 0 0 0 0 0 0
3 2 1 1 2 5 11 21 28 28 23 16 11 6 2 0 1 1 1 0 0 0 0 0 0 0 0 0 0 0 0 0 0 0 0 0 0 0 0 0 0 0 0
2 1 0 1 3 8 14 24 31 30 26 20 13 6 3 2 2 2 2 1 0 0 0 0 0 0 0 0 0 0 0 0 0 0 0 0 0 0 0 0 0 0 0
1 1 1 2 4 9 17 26 31 31 31 28 19 10 6 4 3 3 3 1 0 1 1 0 0 0 0 0 0 0 0 0 0 0 0 0 0 0 0 0 0 0 0
2 3 3 4 7 12 21 28 31 33 36 34 26 16 11 7 5 4 4 1 1 2 2 1 0 0 0 0 0 0 0 0 0 0 0 0 0 0 0 0 0 0 0
5 5 5 7 9 15 23 29 32 36 40 38 31 22 15 10 6 5 3 1 1 2 3 2 0 0 1 1 0 0 0 0 0 0 0 0 0 0 0 0 0 0 0
6 7 7 6 7 12 19 24 29 32 34 34 30 24 16 11 7 4 2 0 0 1 2 1 0 0 1 1 1 0 0 0 0 0 0 0 0 0 0 0 0 0 0
10 11 11 7 7 10 13 16 19 21 21 21 20 18 13 9 7 5 3 2 2 1 1 1 1 2 2 2 2 1 0 0 0 0 0 1 1 0 0 0 0 0 0
16 17 16 14 12 12 12 12 12 11 11 11 11 11 10 9 8 8 9 8 5 3 2 3 4 4 3 2 2 2 1 1 1 1 2 3 2 1 1 0 0 0 0
20 21 19 16 15 14 15 17 16 14 12 11 11 11 12 12 10 10 12 11 7 4 3 3 4 3 3 2 2 1 1 2 2 2 3 4 3 2 1 0 1 1 1
21 19 17 16 15 17 21 25 26 25 22 17 14 14 15 16 14 13 13 12 9 7 6 5 4 3 3 2 2 1 1 2 2 3 4 4 3 2 2 1 1 2 2
19 16 15 18 21 24 27 29 32 32 29 24 19 18 18 18 17 16 16 14 12 11 9 7 6 5 5 5 4 3 3 4 4 4 5 4 3 3 3 3 3 3 2
18 15 14 18 25 30 31 32 32 33 31 29 27 25 21 19 18 19 20 18 14 12 9 7 7 7 7 6 5 5 5 6 6 7 7 5 3 3 3 3 4 4 3
18 17 16 18 26 30 31 30 30 31 33 32 32 30 25 20 19 20 22 20 14 10 8 7 7 7 8 7 7 8 8 8 8 8 8 7 4 2 2 2 3 4 5
19 18 15 16 22 27 29 28 26 27 29 30 31 30 26 22 21 20 20 19 14 9 6 5 6 7 8 9 11 12 12 10 9 9 9 9 7 5 3 2 2 4 7
18 16 13 12 16 22 26 27 27 26 25 26 28 28 25 23 20 18 17 17 15 10 6 5 6 8 10 12 14 14 14 13 10 8 8 9 9 8 7 5 3 5 8
14 13 11 10 11 16 22 25 26 25 23 22 23 23 23 20 17 16 16 15 14 11 7 7 8 11 14 14 13 11 12 13 12 9 7 8 9 11 11 9 7 8 8
8 9 9 9 8 11 16 19 21 21 19 17 16 16 16 15 14 15 15 13 12 11 10 9 10 13 15 13 10 8 9 10 10 9 8 8 8 11 13 13 13 13 11
6 6 6 6 8 10 11 14 16 16 13 11 10 10 11 11 12 12 12 11 10 10 9 8 8 8 10 9 8 7 6 6 6 7 7 8 8 10 13 15 17 16 14
6 5 4 5 8 9 9 9 10 10 9 7 8 9 9 9 9 9 9 9 8 6 5 4 4 4 4 6 8 8 6 5 5 5 5 6 8 9 11 12 14 13 11
6 5 4 5 6 7 7 5 5 5 5 5 7 8 8 8 7 7 7 6 5 3 2 2 2 2 2 4 6 7 7 7 6 5 4 5 7 8 9 9 8 7 7
6 5 5 5 5 5 4 4 3 2 2 3 4 4 5 5 5 5 6 5 4 2 1 1 1 0 1 2 3 4 5 7 7 5 3 4 5 7 7 6 5 4 5
6 5 4 4 3 3 3 3 3 2 2 3 2 1 2 2 3 3 4 4 3 3 2 2 1 0 0 0 1 1 2 4 5 4 2 2 4 5 5 3 2 3 4
6 6 4 3 3 3 3 4 4 3 4 5 3 1 1 2 2 3 3 4 4 4 4 3 2 1 0 0 1 1 1 1 2 2 1 1 3 4 2 1 1 1 2
Wind_Speed
11 14 13 10 10 11 13 14 15 15 15 16 15 15 14 13 12 12 11 10 10 11 11 11 10 10 10 10 11 11 11 10 10 10 10 10 10 9 9 8 8 10 12
13 15 13 10 10 12 13 14 15 15 15 15 15 15 14 13 12 11 11 10 10 10 10 10 10 10 10 10 10 10 10 10 9 10 10 10 10 9 8 5 5 10 10
14 15 14 10 11 12 14 14 15 15 15 15 15 15 13 12 12 11 10 10 10 10 10 10 9 9 9 9 9 9 9 9 8 8 9 8 10 9 7 6 8 10 9
14 14 14 13 11 12 13 14 15 15 15 15 14 14 13 12 11 11 10 10 9 9 9 9 9 9 9 8 8 8 8 8 7 7 7 6 8 10 8 7 7 8 8
13 12 14 13 12 13 13 13 14 15 15 14 14 13 12 11 10 10 10 9 9 8 8 8 8 8 8 8 7 7 7 7 6 9 4 4 6 10 8 8 8 8 7
13 13 14 12 12 12 13 13 14 14 13 13 13 12 11 10 10 9 9 9 8 8 8 8 8 7 7 7 6 6 6 6 9 5 4 4 6 10 8 8 8 8 8
13 12 15 11 12 12 13 13 13 13 12 11 11 11 10 9 8 8 8 8 8 7 7 7 7 6 6 5 5 5 6 7 9 4 4 4 5 10 9 8 8 8 8
12 12 14 12 11 11 12 12 12 11 10 10 9 9 8 8 7 7 7 7 7 6 6 6 6 5 5 4 4 4 5 8 8 4 4 4 7 8 9 8 8 8 8
11 11 11 12 11 10 10 11 10 10 9 9 8 8 8 7 7 6 6 6 6 6 6 5 5 4 4 3 3 4 5 7 10 4 5 3 8 8 9 9 8 8 8
9 9 9 9 10 10 10 10 10 9 9 8 8 7 7 7 7 6 7 5 5 5 5 5 4 4 4 3 3 4 5 8 10 5 4 5 8 8 9 10 10 10 10
8 7 6 7 7 7 8 9 9 9 8 8 7 7 6 6 6 6 4 4 4 4 5 5 5 4 5 6 6 5 7 8 7 4 3 7 7 8 10 11 12 12 11
8 6 6 6 6 6 5 6 5 6 6 5 4 5 3 1 1 1 6 4 3 4 5 5 5 7 9 6 8 8 7 7 5 4 2 7 5 8 9 10 11 12 12
7 5 5 5 4 4 4 4 3 2 3 3 3 2 2 2 2 2 2 4 4 6 6 6 7 6 5 3 3 5 5 5 3 3 2 6 5 8 9 9 10 11 11
6 5 4 4 3 3 3 3 2 2 2 2 3 1 1 1 1 1 1 1 1 2 2 3 3 3 4 4 5 5 5 4 3 3 2 5 3 6 7 8 9 10 11
6 5 4 3 4 3 3 2 2 2 2 2 1 1 0 0 1 1 1 1 2 2 2 3 3 3 4 4 4 4 5 4 4 4 1 4 2 4 6 7 8 9 10
5 5 4 4 3 3 3 2 2 2 2 2 2 2 1 1 1 1 1 1 2 2 2 3 3 3 3 3 4 3 4 4 3 4 4 2 3 3 5 6 7 9 9
5 5 4 3 3 3 3 3 2 2 2 2 2 2 2 2 2 2 1 1 2 2 3 3 4 3 3 3 4 3 3 3 3 3 4 3 2 3 4 4 5 6 7
6 5 4 3 4 4 3 3 3 3 3 2 2 3 3 3 2 1 1 1 2 3 3 3 4 3 3 3 2 2 2 1 2 2 2 2 2 2 1 1 2 3 5
6 5 5 4 4 3 3 3 3 4 3 2 3 3 3 3 3 2 2 2 3 3 3 3 2 3 3 2 2 1 2 2 1 2 2 2 2 2 2 0 2 2 3
6 6 5 5 4 2 2 3 3 4 3 3 4 4 4 3 3 3 1 2 3 2 2 2 2 2 2 2 2 1 1 1 1 1 2 1 2 2 2 3 2 1 2
7 7 6 5 4 2 2 1 2 3 3 4 4 5 4 4 4 3 2 2 3 2 3 3 3 2 2 1 3 2 1 1 1 1 2 2 2 3 3 3 2 2 1
7 6 5 5 4 3 2 1 2 3 3 3 3 4 5 5 4 3 4 3 2 2 2 2 2 3 2 2 3 3 3 3 2 2 2 3 3 3 4 5 4 4 3
6 5 4 5 4 4 2 2 3 3 2 3 3 4 5 5 5 5 4 4 3 2 2 2 2 3 3 2 3 3 3 2 2 2 3 3 4 4 4 4 5 5 5
6 5 6 5 5 5 4 3 4 3 3 4 3 4 5 6 6 5 4 4 3 3 3 3 3 3 3 3 2 3 3 3 2 2 2 3 4 5 5 4 5 5 5
5 5 6 6 7 7 6 5 4 5 4 3 4 5 4 5 5 5 5 4 4 3 4 4 3 3 2 3 2 2 2 2 3 2 2 2 3 5 5 5 4 5 5
6 6 6 7 7 7 6 7 6 7 6 5 5 4 3 3 4 7 6 5 5 4 4 3 3 3 3 2 2 2 2 2 2 2 2 2 3 3 5 5 5 5 5
Wind_Direction
140 133 129 131 129 129 131 133 133 136 139 140 140 139 138 135 132 128 125 120 115 113 112 111 111 112 114 117 120 120 121 121 122 123 122 121 119 118 120 131 155 117 110
136 132 131 132 130 129 129 131 132 133 136 138 140 139 139 137 133 130 127 122 118 116 115 114 114 114 116 119 123 125 128 131 132 134 136 133 127 122 122 117 40 101 122
135 134 140 134 130 129 129 130 131 134 136 137 139 140 140 139 135 133 129 126 123 121 120 119 120 121 122 124 128 131 134 140 144 151 174 154 130 129 128 117 96 113 123
134 140 142 135 134 131 130 132 133 136 137 138 139 140 141 139 137 136 134 132 129 128 128 128 127 128 130 131 135 138 139 141 149 183 194 142 135 131 139 136 131 132 132
133 137 131 140 138 135 134 134 135 136 137 139 140 141 141 141 139 138 138 136 135 134 134 134 134 136 138 140 143 147 148 149 166 219 161 136 124 136 151 152 151 150 145
137 139 133 143 141 140 138 136 136 138 139 140 141 141 142 142 141 141 140 140 139 138 138 139 140 143 146 149 154 160 167 171 204 195 151 159 143 146 164 167 166 161 158
139 137 136 141 142 143 142 139 138 138 138 139 141 142 142 142 143 144 144 145 146 146 146 146 146 150 154 158 162 170 182 199 239 178 178 183 136 148 178 181 178 173 171
138 136 132 140 144 144 142 139 137 136 135 137 139 139 139 140 143 146 148 150 152 153 153 154 156 159 162 168 175 182 192 230 227 201 195 182 127 165 188 188 189 185 183
132 133 139 145 145 141 135 133 131 128 127 129 132 134 139 143 148 154 156 161 163 163 164 168 169 169 175 187 196 202 212 243 261 208 208 183 141 184 194 190 195 200 196
127 129 136 144 146 152 146 136 133 130 132 135 134 135 141 152 159 164 176 168 178 180 180 181 179 183 191 204 216 219 222 236 249 221 212 153 153 197 201 197 199 204 206
118 122 135 135 143 147 141 137 145 142 145 153 151 148 175 187 174 181 157 152 189 194 196 194 191 193 205 201 213 224 232 239 234 240 227 120 170 210 212 205 204 206 208
127 129 132 135 145 145 142 146 158 158 153 174 154 163 185 168 210 214 124 173 202 205 203 196 201 212 226 213 192 208 233 241 250 232 161 124 193 220 217 209 209 211 211
123 122 122 129 141 145 144 146 143 146 145 157 139 152 159 183 191 217 190 182 205 213 216 187 210 226 233 250 254 232 250 260 258 257 138 139 205 226 224 218 216 216 214
119 114 107 119 134 133 125 127 132 131 138 139 130 150 153 196 235 230 244 262 254 256 262 255 248 245 256 252 254 263 258 258 265 268 128 139 204 234 235 226 220 220 219
109 101 96 104 111 111 111 121 120 110 99 100 96 104 76 244 271 271 286 313 291 285 263 263 266 268 265 257 259 263 271 274 279 277 216 145 193 237 238 232 227 224 223
98 92 85 91 95 111 117 110 105 102 90 73 70 58 7 334 343 308 293 304 297 293 298 282 276 268 263 267 266 262 268 273 272 283 284 189 175 222 243 238 231 225 220
88 75 64 76 72 80 99 110 102 92 89 75 67 53 35 10 349 317 314 299 317 300 282 271 275 265 257 251 253 257 260 274 284 283 285 298 253 209 229 237 231 222 218
79 75 60 57 67 69 70 74 82 78 82 81 74 67 54 43 18 323 325 353 323 284 269 262 258 261 261 262 270 285 280 262 276 286 276 279 295 287 225 227 247 235 226
72 70 67 61 60 66 81 89 87 84 76 76 71 62 56 48 32 7 9 7 305 289 280 279 281 283 271 268 268 263 283 282 292 294 311 313 330 320 312 260 229 255 256
73 65 60 60 56 71 98 101 95 87 80 69 63 54 40 30 21 357 355 355 316 307 304 307 296 280 281 269 274 295 306 314 316 348 320 335 354 340 329 320 293 262 265
75 67 59 55 52 54 73 91 100 90 80 72 66 53 42 29 22 12 353 0 338 334 327 311 296 272 262 251 254 234 210 211 49 30 10 2 17 14 7 353 342 316 284
74 70 62 56 52 53 67 86 85 92 83 73 65 57 41 36 24 24 12 357 356 324 319 319 307 292 273 253 272 265 228 192 133 64 55 44 28 27 28 24 18 12 359
72 66 61 56 50 46 56 104 120 123 113 83 64 57 45 40 40 31 19 8 355 331 353 333 319 295 281 266 266 276 272 243 141 108 67 53 42 38 31 28 29 24 23
75 69 62 58 56 56 57 66 76 76 72 58 48 56 57 49 44 38 28 21 2 358 356 330 350 307 288 278 265 261 278 298 246 157 117 78 56 44 38 35 32 30 30
89 78 68 64 60 57 56 63 75 79 76 70 63 63 55 55 44 34 30 24 15 8 10 355 341 327 308 299 299 290 274 260 252 224 181 135 83 51 44 42 42 40 35
96 88 79 74 64 60 62 65 66 75 75 69 58 51 51 53 45 35 30 23 18 14 8 354 343 343 335 317 298 289 281 271 245 233 183 143 108 71 54 43 41 43 47